Preview of NWS' New Version of Forecast
This preview is not operational and should not be used for support decisions.

Regional Weather Roundup (RWR)

Issued by National Weather Service (NWS)

                            
000
ASUS43 KMKX 241059
RWRWI 

WISCONSIN REGIONAL WEATHER ROUNDUP
NATIONAL WEATHER SERVICE MILWAUKEE/SULLIVAN WI
600 AM CDT WED APR 24 2019

NOTE: "FAIR" INDICATES FEW OR NO CLOUDS BELOW 12,000 FEET WITH NO
SIGNIFICANT WEATHER AND/OR OBSTRUCTIONS TO VISIBILITY.

WIZ001-002-006>008-014>016-023>028-241200-
NORTHWEST WISCONSIN
  
CITY           SKY/WX    TMP DP  RH WIND       PRES   REMARKS
SUPERIOR ARPT  DRIZZLE   37  30  78 CALM      29.87F                  
ASHLAND        FAIR      46  36  68 SW6       29.89S                  
HAYWARD        CLOUDY    46  38  73 S3        29.91S                  
SIREN          FAIR      50  37  61 S6        29.90S                  
CUMBERLAND     FAIR      45  32  61 CALM      29.92S                  
RICE LAKE      FAIR      42  32  67 SE3       29.93S                  
CHETEK         FAIR      36  36 100 CALM      29.92F                  
LADYSMITH      FAIR      42  34  73 SE3       29.94F                  
EAU CLAIRE     NOT AVBL                                               
MENOMONIE      FAIR     N/A N/A N/A E3        29.93S                  
NEW RICHMOND   FAIR      46  34  64 S7        29.92S                  
OSCEOLA        FAIR      46  37  72 S6        29.94S                  
$$
 
WIZ003>005-009-010-017-018-241200-
NORTH CENTRAL WISCONSIN
  
CITY           SKY/WX    TMP DP  RH WIND       PRES   REMARKS
MANITOWISH WTR MOCLDY    40  30  66 S8        29.93S WCI  35          
ARBOR VITAE    FAIR      41  35  79 S5        29.93F                  
WOODRUFF       FAIR      41  35  79 S5        29.93F                  
RHINELANDER    NOT AVBL                                               
EAGLE RIVER    FAIR      37  31  81 CALM      29.94F                  
LAND O LAKES   FAIR      38  32  81 CALM      29.96S                  
PHILLIPS       FAIR      42  29  59 S5        29.93R                  
TOMAHAWK       FAIR      35  33  93 CALM      29.97S                  
MEDFORD        FAIR      37  32  83 SE7       29.95F WCI  32          
MERRILL        FAIR      30  30 100 CALM      29.98S                  
$$
 
WIZ029-030-035-036-043>047-241200-
CENTRAL WISCONSIN
  
CITY           SKY/WX    TMP DP  RH WIND       PRES   REMARKS
WAUSAU         NOT AVBL                                               
MOSINEE        PTCLDY    36  34  93 SE6       29.99S WCI  31          
MARSHFIELD     NOT AVBL                                               
STEVENS POINT  FAIR      33  33 100 CALM      30.00R                  
WAUPACA        FAIR      37  35  94 CALM      30.01S                  
WAUTOMA        NOT AVBL                                               
WISC RAPIDS    NOT AVBL                                               
CAMP DOUGLAS   FAIR      32  32 100 SE5       29.98R FOG     WCI  27  
$$
 
WIZ011>013-019>022-031-037>040-048>050-241200-
NORTHEAST WISCONSIN
  
CITY           SKY/WX    TMP DP  RH WIND       PRES   REMARKS
ANTIGO         FAIR      35  32  88 S5        29.98S WCI  31          
SHAWANO        FAIR      34  28  81 CALM      30.01R                  
OCONTO         MOCLDY    31  30  99 CALM      30.02R                  
STURGEON BAY   FAIR      34  33  96 CALM      30.02S                  
GREEN BAY      FAIR      36  34  92 CALM      30.02R                  
MANITOWOC      FAIR      32  31  96 S3        30.04R                  
APPLETON       PTCLDY    37  30  75 S7        30.00R WCI  32          
CLINTONVILLE   FAIR      35  32  90 CALM      30.02R                  
OSHKOSH        FAIR      38  32  79 S6        30.01R WCI  33          
$$
 
WIZ032>034-041-042-053>061-241200-
SOUTHWEST WISCONSIN
  
CITY           SKY/WX    TMP DP  RH WIND       PRES   REMARKS
LA CROSSE      FAIR      43  37  79 SE6       29.97S                  
SPARTA         FAIR      30  30  99 CALM      29.98S                  
VIROQUA        FAIR      44  37  77 SW3       29.98R                  
BOSCOBEL       FAIR      37  34  89 CALM      30.00S                  
PRAIRIE DU CHI FAIR      40  37  89 E3        29.99S                  
PLATTEVILLE    FAIR      43  38  84 S6        30.00S                  
$$

WIZ056-057-062-063-064-067-068-241200-
SOUTH CENTRAL WISCONSIN
  
CITY           SKY/WX    TMP DP  RH WIND       PRES   REMARKS
REEDSBURG      FAIR      37  37 100 CALM      29.99S                  
BARABOO/DELLS  FAIR      40  39  96 S3        29.99S                  
LONE ROCK      FAIR      42  38  85 CALM      30.00S                  
MINERAL POINT  FAIR      43  36  75 CALM      29.99S                  
MADISON        FAIR      39  36  89 CALM      30.01S                  
MIDDLETON      FAIR      41  41 100 CALM      30.01S                  
WATERTOWN      FAIR      38  34  85 CALM      30.02S                  
MONROE         FAIR      43  37  81 MISG      30.00S                  
JANESVILLE     PTCLDY    41  41 100 E7        30.02S FOG              
$$
 
WIZ051-052-058>065-066-070>072-241200-
SOUTHEAST WISCONSIN
  
CITY           SKY/WX    TMP DP  RH WIND       PRES   REMARKS
MILWAUKEE      FAIR      40  32  73 SE3       30.05R                  
WAUKESHA       CLEAR     36  32  87 SE3       30.05R                  
MILWAUKEE/TIMM FAIR      36  32  87 CALM      30.06R                  
RACINE         FAIR      37  31  78 CALM      30.07R                  
KENOSHA        FAIR      38  34  85 E3        30.05R                  
FOND DU LAC    FAIR      37  33  85 S5        30.02R WCI  33          
SHEBOYGAN      FAIR      33  31  92 CALM      30.03R                  
WEST BEND      FAIR      32  32 100 CALM      30.04R                  
JUNEAU         FAIR      38  33  83 SE3       30.03R                  
$$

LSZ147-162-241200-
LAKE SUPERIOR
  
STATION/POSITION TIME  TEMP    WIND        PRES    WAVE
                       AIR SEA DIR/SP/G            HT/PER
                 (UTC) (F)     (DEG/KT/KT) (MB)    (FT/S)
$$
 
LMZ867-665-643>646-241200-
LAKE MICHIGAN
  
STATION/POSITION TIME  TEMP    WIND        PRES    WAVE
                       AIR SEA DIR/SP/G            HT/PER
                 (UTC) (F)     (DEG/KT/KT) (MB)    (FT/S)
NORTHPORT PIER   1040   31        CALM     1016.3F
KEWAUNEE LAKESHO 1024   35     280/  1/  3 1015.6
SHEBOYGAN LAKESH 1000   42     160/  6/  7 1016.9F
MILWAUKEE LAKESH 1030   40                   N/A
KENOSHA   LAKESH 1000   41      40/  4/  6 1017.3
$$

TC  - TEMPERATURE IN CELSIUS
VSB - VISIBILITY IN STATUTE MILES
WCI - WIND CHILL INDEX
HX  - HEAT INDEX